SCP
0 0 0 0 0 0 0 0 0 0 0 0 0 0 0 0 0 0 0 0 0 0 0 0 0 0 0 0 0 0 0 1 1 1 1 1 1 1 1 1 1 1 1 1
0 0 0 0 0 0 0 0 0 0 0 0 0 0 0 0 0 0 0 0 0 0 0 0 0 0 0 0 0 0 0 1 1 1 1 1 1 1 1 1 1 1 1 1
0 0 0 0 0 0 0 0 0 0 0 0 0 0 0 0 0 0 0 0 0 0 0 0 0 0 0 0 0 0 0 0 1 1 1 1 1 1 1 1 1 1 1 1
0 0 0 0 0 0 0 0 0 0 0 0 0 0 0 0 0 0 0 0 0 0 0 0 0 0 0 0 0 0 0 0 1 1 1 1 1 1 1 1 1 1 1 1
0 0 0 0 0 0 0 0 0 0 0 0 0 0 0 0 0 0 0 0 0 0 0 0 0 0 0 0 0 0 0 0 1 1 1 1 1 1 1 1 1 2 2 2
0 0 0 0 0 0 0 0 0 0 0 0 0 0 0 0 0 0 0 0 0 0 0 0 0 0 0 0 0 0 0 0 0 1 1 1 1 1 1 2 2 3 3 2
0 0 0 0 0 0 0 0 0 0 0 0 0 0 0 0 0 0 0 0 0 0 0 0 0 0 0 0 0 0 0 0 0 1 1 1 1 1 1 2 3 3 3 2
0 0 0 0 0 0 0 0 0 0 0 0 0 0 0 0 0 0 0 0 0 0 0 0 0 0 0 0 0 0 0 0 0 1 1 1 1 1 1 2 3 3 2 2
0 0 0 0 0 0 0 0 0 0 0 0 0 0 0 0 0 0 0 0 0 0 0 0 0 0 0 0 0 0 0 0 1 1 1 1 2 2 2 2 2 2 1 1
0 0 0 0 0 0 0 0 0 0 0 0 0 0 0 0 0 0 0 0 0 0 0 0 0 0 0 0 0 0 0 1 1 1 1 2 2 2 2 2 2 1 1 0
0 0 0 0 0 0 0 0 0 0 0 0 0 0 0 0 0 0 0 0 0 0 0 0 0 0 0 0 0 0 1 1 2 2 2 2 2 2 2 1 1 0 0 0
0 0 0 0 0 0 0 0 0 0 0 0 0 0 0 0 0 0 0 0 0 0 0 0 0 0 0 0 0 0 1 2 3 3 2 2 2 2 1 1 1 0 0 0
0 0 0 0 0 0 0 0 0 0 0 0 0 0 0 0 0 0 0 0 0 0 0 0 0 0 0 0 1 1 2 3 4 3 2 2 2 1 1 1 0 0 0 0
0 0 0 0 0 0 0 0 0 0 0 0 0 0 0 0 0 0 0 0 0 0 0 0 0 0 0 0 1 1 2 3 3 3 2 2 1 1 1 0 0 0 0 0
0 0 0 0 0 0 0 0 0 0 0 0 0 0 0 0 0 0 0 0 0 0 0 0 0 0 0 0 1 1 2 2 2 2 1 1 1 0 0 0 0 0 0 0
0 0 0 0 0 0 0 0 0 0 0 0 0 0 0 0 0 0 0 0 0 0 0 0 0 0 0 0 0 1 1 1 1 1 0 0 0 0 0 0 0 0 0 0
0 0 0 0 0 0 0 0 0 0 0 0 0 0 0 0 0 0 0 0 0 0 0 0 0 0 0 0 0 0 0 0 0 0 0 0 0 0 0 0 0 0 0 0
0 0 0 0 0 0 0 0 0 0 0 0 0 0 0 0 0 0 0 0 0 0 0 0 0 0 0 0 0 0 0 0 0 0 0 0 0 0 0 0 0 0 0 0
0 0 0 0 0 0 0 0 0 0 0 0 0 0 0 0 0 0 0 0 0 0 0 0 0 0 0 0 0 0 0 0 0 0 0 0 0 0 0 0 0 0 0 0
0 0 0 0 0 0 0 0 0 0 0 0 0 0 0 0 0 0 0 0 0 0 0 0 0 0 0 0 0 0 0 0 0 0 0 0 0 0 0 0 0 0 0 0
0 0 0 0 0 0 0 0 0 0 0 0 0 0 0 0 0 0 0 0 0 0 0 0 0 0 0 0 0 0 0 0 0 0 0 0 0 0 0 0 0 0 0 0
0 0 0 0 0 0 0 0 0 0 0 0 0 0 0 0 0 0 0 0 0 0 0 0 0 0 0 0 0 0 0 0 0 0 0 0 0 0 0 0 0 0 0 0
0 0 0 0 0 0 0 0 0 0 0 0 0 0 0 0 0 0 0 0 0 0 0 0 0 0 0 0 0 0 0 0 0 0 0 0 0 0 0 0 0 0 0 0
0 0 0 0 0 0 0 0 0 0 0 0 0 0 0 0 0 0 0 0 0 0 0 0 0 0 0 0 0 0 0 0 0 0 0 0 0 0 0 0 0 0 0 0
0 0 0 0 0 0 0 0 0 0 0 0 0 0 0 0 0 0 0 0 0 0 0 0 0 0 0 0 0 0 0 0 0 0 0 0 0 0 0 0 0 0 0 0
0 0 0 0 0 0 0 0 0 0 0 0 0 0 0 0 0 0 0 0 0 0 0 0 0 0 0 0 0 0 0 0 0 0 0 0 0 0 0 0 0 0 0 0
Wind_Speed
10 9 12 14 16 11 7 8 9 5 4 6 9 11 10 8 8 8 8 7 7 6 6 6 6 5 5 5 6 6 6 6 5 4 4 4 3 3 2 2 3 3 3 3
9 14 14 11 11 12 11 10 8 3 3 4 7 12 11 10 10 8 7 7 7 6 5 6 6 5 5 5 5 6 6 6 5 5 4 3 3 3 3 2 2 3 3 3
14 8 12 13 12 12 12 10 8 5 3 5 6 10 12 9 9 8 7 7 6 7 7 6 6 6 5 5 5 5 5 5 5 6 4 4 3 2 2 2 2 2 3 3
13 10 9 12 13 12 11 8 7 5 3 4 5 6 6 8 9 9 9 7 6 5 5 5 5 5 5 5 5 5 5 5 6 6 6 6 5 4 3 3 2 2 3 3
8 9 11 13 12 11 5 3 5 6 5 5 6 6 8 7 9 10 8 7 6 5 5 6 5 5 4 5 5 5 5 5 5 6 6 6 4 4 3 3 3 3 2 2
8 5 7 8 7 7 3 2 1 2 2 7 9 9 8 6 9 9 8 7 6 6 6 6 5 5 4 4 5 5 5 5 5 6 6 6 6 5 5 4 4 3 2 2
7 7 5 4 6 7 6 5 3 4 5 8 7 8 8 4 5 7 8 7 6 6 6 6 6 5 5 5 5 5 6 5 5 5 5 6 6 6 6 5 4 4 3 2
7 7 10 8 8 7 9 9 6 6 6 4 6 8 5 2 4 5 6 6 5 5 5 6 6 5 6 6 6 6 6 5 5 5 5 5 5 4 4 4 4 3 3 3
5 5 7 8 7 7 8 9 5 3 3 3 6 4 2 2 4 4 5 5 4 4 5 5 5 5 6 6 6 7 6 5 5 5 4 4 4 4 4 4 3 2 2 3
2 2 4 4 4 6 5 4 3 4 5 5 6 7 6 7 5 4 5 5 4 3 4 5 4 4 4 5 5 6 6 5 5 4 4 4 3 4 4 4 3 3 3 3
2 2 3 4 8 9 7 6 5 5 5 4 4 3 1 5 6 6 4 4 4 3 4 4 4 4 4 4 4 5 5 5 5 4 4 4 3 3 4 3 3 3 3 3
2 2 3 5 4 4 7 7 7 5 6 4 3 3 3 3 3 4 3 4 4 3 5 5 4 4 4 4 4 4 4 5 4 4 4 4 4 4 4 4 3 3 3 3
1 3 3 3 3 3 5 7 8 5 3 4 5 4 1 3 3 3 3 4 4 4 5 5 4 4 4 4 4 4 4 4 4 4 4 4 4 4 4 4 3 3 3 2
2 3 4 5 2 4 6 8 8 7 6 6 7 5 3 0 1 1 2 3 4 4 4 4 4 4 4 4 4 4 4 4 4 4 4 4 3 4 4 4 3 3 2 2
1 3 4 5 5 4 5 9 11 12 10 7 6 6 5 2 1 2 2 3 4 4 4 4 4 4 4 4 4 4 4 3 4 4 4 4 4 4 3 3 3 2 2 2
1 3 3 5 4 4 6 8 11 12 12 10 8 8 3 2 2 2 2 3 3 3 3 4 4 4 4 4 4 4 4 4 4 5 4 4 4 4 3 3 3 2 2 1
2 2 2 3 3 4 7 9 11 10 9 9 10 7 2 2 2 2 2 2 2 2 3 3 3 3 3 4 4 4 4 4 5 4 4 3 4 4 3 3 2 2 1 1
4 3 2 2 1 6 3 1 3 7 6 4 3 1 1 0 2 3 3 2 3 3 2 2 2 2 3 3 4 4 5 5 4 4 3 3 3 3 3 2 2 1 1 0
7 5 3 2 3 5 2 2 1 3 3 1 2 1 1 2 2 3 4 3 3 3 3 3 2 2 3 3 4 4 4 4 4 4 3 3 3 3 2 2 1 1 0 0
3 4 3 3 3 3 1 4 4 0 1 3 2 2 2 2 1 0 3 4 5 4 3 3 3 3 3 3 4 4 4 3 3 3 3 3 3 3 2 2 1 1 0 0
2 2 4 4 3 2 3 5 3 1 2 4 3 2 2 1 1 2 3 4 4 4 3 3 3 2 2 3 4 4 3 2 2 2 3 2 2 2 2 1 1 1 0 0
2 2 3 3 3 3 4 3 2 1 3 4 4 3 4 3 3 4 4 3 3 3 3 3 3 2 2 3 3 3 2 2 2 3 2 2 2 1 1 2 1 1 0 0
2 2 2 2 2 1 2 3 2 3 3 3 3 4 3 3 3 3 3 3 3 3 3 3 3 3 3 3 3 3 2 2 3 3 2 2 2 1 1 1 1 0 0 1
1 1 0 1 1 1 3 3 4 4 4 4 4 4 4 3 3 3 3 3 3 3 3 3 3 3 3 3 3 3 2 2 3 3 2 2 2 1 1 1 0 0 0 1
2 1 1 1 2 3 3 4 4 5 6 6 5 5 4 4 3 3 2 3 3 3 3 3 3 3 3 3 3 3 2 2 3 3 2 2 1 1 1 1 1 1 1 2
2 2 2 2 2 1 3 4 5 5 5 4 4 4 4 3 3 3 3 3 3 3 3 3 3 3 3 3 3 3 2 2 2 2 1 1 1 1 0 0 2 3 3 4
Wind_Direction
195 209 211 206 212 234 251 240 240 225 182 208 234 247 248 232 224 225 219 212 202 197 184 172 168 160 158 163 164 162 162 165 158 156 159 159 161 156 142 138 141 141 138 135
194 221 223 219 214 228 247 253 250 226 183 226 254 258 252 237 226 221 219 211 200 195 180 168 163 162 168 168 162 158 158 161 159 159 161 158 151 150 144 135 133 137 136 137
213 213 214 220 219 224 233 239 246 240 213 234 266 269 241 228 218 215 219 212 198 189 183 174 171 170 167 169 166 159 159 158 158 152 140 133 118 113 117 145 158 149 139 143
232 225 215 216 221 219 233 230 245 251 230 241 206 271 244 209 207 207 209 200 193 189 176 168 168 167 167 167 157 155 156 154 154 152 154 158 163 168 178 169 160 145 133 136
224 209 211 218 220 216 222 224 235 240 241 266 228 248 267 203 202 200 194 186 182 179 176 170 168 166 162 153 149 151 148 148 151 157 162 164 165 165 155 148 148 151 147 145
245 228 215 222 228 221 180 162 257 258 236 247 221 220 262 212 200 187 179 176 175 174 171 165 158 154 150 142 144 149 151 154 155 159 162 164 165 162 158 162 163 164 160 155
232 227 213 207 197 203 179 156 167 192 211 237 205 215 242 228 177 167 166 164 165 166 165 163 159 158 156 154 156 157 156 160 161 161 165 166 166 165 168 170 168 164 163 162
203 215 198 198 195 187 196 192 191 194 207 223 198 222 239 177 128 126 136 145 152 155 161 163 161 161 160 162 161 159 159 162 164 164 166 161 161 163 166 166 163 164 163 168
210 224 178 197 198 190 189 216 244 286 277 251 225 221 209 138 120 123 131 137 152 159 157 153 152 155 160 163 163 160 159 158 158 156 153 151 153 153 156 152 146 147 152 157
291 233 186 183 191 220 217 195 190 208 217 232 233 219 206 171 165 153 146 149 155 152 148 145 145 147 150 153 151 149 149 150 147 145 151 146 148 148 142 134 140 145 143 139
262 222 182 179 199 197 197 207 202 205 231 218 233 238 17 151 155 157 156 143 141 150 147 143 141 135 134 129 129 139 143 140 138 140 142 136 133 125 119 125 132 132 124 121
232 218 218 218 228 229 216 209 199 203 223 229 262 275 5 84 103 127 127 124 129 140 138 133 131 125 125 125 126 128 132 133 136 134 127 125 123 124 124 119 119 115 115 113
210 205 200 198 203 210 223 222 221 234 251 230 226 245 44 78 67 86 107 118 118 114 117 118 122 126 128 128 124 125 124 126 126 124 122 121 124 125 121 115 112 111 113 113
313 242 225 224 233 200 222 222 222 219 225 236 233 241 260 229 109 83 82 109 109 105 112 114 124 131 128 124 119 118 117 119 122 122 124 124 123 118 115 111 109 112 115 112
341 265 268 284 292 242 238 225 220 225 230 234 246 250 258 260 146 118 95 104 112 115 114 119 123 123 122 119 118 118 118 115 119 119 118 121 115 109 109 110 111 107 102 102
290 280 287 277 277 273 263 242 229 231 235 244 260 267 289 351 40 54 66 84 106 124 124 121 118 124 128 130 129 123 122 123 114 115 119 117 116 116 116 119 118 112 107 106
233 242 250 254 272 296 258 234 224 226 226 228 240 249 286 330 12 16 57 88 110 120 124 126 132 138 135 134 133 133 128 118 117 121 123 121 122 120 122 118 107 111 111 97
224 234 247 259 242 236 242 319 242 232 234 236 255 263 259 117 57 43 44 73 75 63 72 92 105 112 114 113 115 114 114 117 120 122 121 119 121 125 122 117 120 108 92 82
214 210 219 217 231 257 260 330 307 229 238 254 249 289 25 81 64 32 32 48 69 67 66 69 74 93 105 111 115 115 114 119 121 126 129 131 133 133 132 137 139 118 88 19
222 196 215 226 227 237 341 341 335 299 252 9 17 27 41 70 146 115 33 42 50 52 54 57 59 72 92 104 111 112 118 121 129 134 130 126 134 143 146 148 135 88 78 347
183 197 214 233 241 270 342 327 352 161 265 349 9 27 53 54 75 93 60 49 52 52 53 60 67 77 89 99 108 113 112 124 124 113 118 123 126 132 137 123 113 111 78 11
180 189 200 208 224 257 3 21 39 351 356 7 27 49 66 72 68 69 61 51 48 53 53 57 66 70 76 87 103 110 114 111 102 104 109 110 108 104 97 103 90 95 78 305
197 203 191 185 199 346 28 34 16 21 18 10 33 45 73 78 69 64 58 49 48 57 57 58 73 72 72 81 97 114 113 108 108 104 104 105 96 87 99 115 112 85 19 314
288 319 8 59 350 23 20 10 25 36 33 26 38 53 62 64 66 61 54 46 50 52 53 59 69 69 60 63 72 87 94 105 114 113 105 101 95 74 50 44 63 199 277 284
309 330 310 264 304 342 8 24 29 35 35 35 37 43 52 59 50 51 58 60 51 54 56 60 70 71 63 63 66 65 71 95 103 101 97 93 94 93 55 13 336 301 263 259
313 299 278 272 313 312 334 4 22 28 22 22 28 32 35 49 51 46 53 53 53 59 63 68 67 66 56 57 62 54 45 66 93 94 92 99 100 79 73 25 352 350 330 322